Date and Time,30m Wind Direction,30m Wind Speed,30m Wind Vert,30m Quality,40m Wind Direction,40m Wind Speed,40m Wind Vert,40m Quality,50m Wind Direction,50m Wind Speed,50m Wind Vert,50m Quality,60m Wind Direction,60m Wind Speed,60m Wind Vert,60m Quality,80m Wind Direction,80m Wind Speed,80m Wind Vert,80m Quality,100m Wind Direction,100m Wind Speed,100m Wind Vert,100m Quality,120m Wind Direction,120m Wind Speed,120m Wind Vert,120m Quality,140m Wind Direction,140m Wind Speed,140m Wind Vert,140m Quality,160m Wind Direction,160m Wind Speed,160m Wind Vert,160m Quality,180m Wind Direction,180m Wind Speed,180m Wind Vert,180m Quality,200m Wind Direction,200m Wind Speed,200m Wind Vert,200m Quality,30m Wind Turbulence,40m Wind Turbulence,50m Wind Turbulence,60m Wind Turbulence,80m Wind Turbulence,100m Wind Turbulence,120m Wind Turbulence,140m Wind Turbulence,160m Wind Turbulence,180m Wind Turbulence,200m Wind Turbulence
10/3/2018 12:00 AM,207.00,10.28,-0.01,99,205.40,11.47,0.06,99,204.70,11.64,0.00,99,206.00,12.09,0.02,99,206.30,12.29,-0.03,98,208.60,12.52,-0.14,96,204.10,11.93,-0.28,93,213.60,13.35,-0.42,90,229.20,14.15,-0.88,88,214.70,13.84,-0.78,88,224.40,13.37,-1.61,73,0.06,0.05,0.05,0.05,0.07,0.11,0.20,0.21,0.24,0.32,0.39
10/3/2018 12:10 AM,208.10,9.94,-0.03,99,207.00,10.56,0.08,99,205.90,11.27,0.00,99,205.50,11.52,0.01,98,205.60,11.47,-0.02,98,205.20,11.64,-0.12,96,207.90,13.15,-0.12,94,208.90,11.85,-0.35,91,210.00,13.33,-0.71,88,197.20,9.64,-0.90,67,188.80,8.45,-0.91,38,0.07,0.06,0.05,0.06,0.12,0.16,0.16,0.22,0.23,0.35,0.37
10/3/2018 12:20 AM,203.80,9.89,0.04,98,204.90,10.33,-0.03,98,205.90,11.11,-0.01,98,205.50,11.15,-0.02,98,210.50,11.03,-0.20,98,209.70,11.78,-0.22,96,205.40,12.32,-0.35,93,212.60,11.77,-0.51,89,203.40,11.74,-0.87,87,212.90,14.34,-1.12,66,209.60,15.55,-1.29,61,0.06,0.06,0.05,0.07,0.16,0.16,0.19,0.23,0.29,0.28,0.25
10/3/2018 12:30 AM,207.30,9.17,-0.02,99,207.20,10.10,0.01,99,208.70,10.55,-0.05,97,212.50,10.49,-0.23,98,211.80,10.56,-0.36,95,212.50,11.03,-0.43,94,216.70,11.76,-0.82,91,231.40,12.10,-1.54,88,229.10,14.06,-1.76,78,223.60,16.52,-2.87,71,230.90,10.72,-3.10,67,0.06,0.05,0.07,0.16,0.28,0.22,0.29,0.36,0.38,0.28,0.53
10/3/2018 12:40 AM,207.70,9.12,-0.03,98,206.20,10.09,0.02,98,210.10,10.54,-0.04,98,208.10,10.53,-0.05,98,211.00,11.04,-0.04,97,211.00,11.32,-0.15,97,213.40,11.63,0.00,93,214.90,12.02,-0.11,93,215.20,12.34,-0.10,92,218.80,12.75,-0.24,90,220.10,13.02,-0.36,87,0.07,0.05,0.05,0.05,0.06,0.12,0.07,0.09,0.08,0.13,0.15
10/3/2018 12:50 AM,207.40,8.77,-0.03,99,207.30,9.48,0.02,98,206.80,10.05,0.02,99,205.70,10.30,0.06,98,207.40,10.69,0.02,97,209.40,11.12,-0.09,96,206.30,11.59,0.00,95,210.10,11.67,-0.08,94,211.90,12.08,-0.16,93,211.00,12.02,-0.19,91,212.30,13.35,-0.25,89,0.07,0.06,0.05,0.05,0.04,0.12,0.07,0.12,0.16,0.15,0.15
10/3/2018 1:00 AM,208.60,9.01,-0.07,99,206.70,9.54,-0.04,99,208.70,10.19,-0.09,98,204.60,10.63,-0.04,98,209.50,11.22,-0.14,97,207.10,11.31,-0.11,95,211.60,10.63,-0.22,96,211.90,12.34,-0.30,94,214.40,11.66,-0.41,94,209.50,11.37,-0.43,91,210.80,12.85,-0.49,91,0.07,0.06,0.05,0.08,0.13,0.12,0.21,0.19,0.20,0.20,0.17
10/3/2018 1:10 AM,211.50,9.70,-0.06,99,211.00,10.22,-0.09,99,210.30,10.59,-0.09,98,209.30,11.10,-0.15,97,207.70,10.90,-0.19,95,204.50,11.02,-0.15,92,211.80,12.41,-0.24,89,208.30,11.37,-0.36,84,206.60,11.15,-0.33,72,211.00,13.30,-0.87,59,215.60,12.54,-0.87,53,0.06,0.06,0.06,0.08,0.09,0.13,0.12,0.20,0.14,0.22,0.19
10/3/2018 1:20 AM,212.90,9.97,-0.22,99,209.80,10.22,-0.13,99,206.30,11.39,-0.29,99,214.60,11.51,-0.32,98,209.80,11.31,-0.29,98,208.50,12.54,-0.37,95,206.20,11.88,-0.22,93,209.10,12.03,-0.15,92,212.60,13.16,-0.24,91,210.10,13.46,-0.22,89,217.40,13.55,-0.24,87,0.12,0.11,0.13,0.14,0.15,0.14,0.12,0.09,0.11,0.11,0.11
10/3/2018 1:30 AM,208.70,9.41,-0.84,98,214.50,9.53,-1.28,98,212.60,11.04,-1.08,99,212.50,11.41,-1.35,98,218.90,10.82,-1.45,98,217.00,11.19,-1.19,96,225.40,11.45,-1.35,95,220.80,13.39,-1.51,93,219.60,10.05,-1.61,92,217.80,11.91,-1.27,90,220.90,9.86,-1.31,69,0.27,0.31,0.27,0.26,0.29,0.28,0.25,0.25,0.32,0.25,0.41
10/3/2018 1:40 AM,208.00,10.81,-0.95,98,209.90,9.20,-1.16,98,210.50,10.72,-1.49,99,210.70,10.50,-1.56,97,211.40,11.72,-1.58,97,216.90,11.06,-1.53,95,211.00,10.24,-1.27,95,204.20,11.14,-0.70,94,214.80,11.31,-0.81,92,212.60,12.71,-0.67,92,218.90,14.45,-0.74,91,0.26,0.32,0.30,0.29,0.26,0.32,0.30,0.34,0.26,0.30,0.20
10/3/2018 1:50 AM,207.40,9.76,-0.02,99,203.80,10.46,-0.02,99,206.00,10.86,-0.04,99,209.10,11.15,-0.07,98,206.70,10.61,-0.17,97,208.60,10.67,-0.36,96,215.90,10.62,-0.61,95,213.30,10.72,-1.11,94,207.70,7.92,-1.56,91,214.00,12.91,-0.89,89,209.60,11.24,-1.68,88,0.06,0.07,0.08,0.12,0.19,0.26,0.24,0.46,0.55,0.27,0.37
10/3/2018 2:00 AM,206.40,10.38,-0.02,99,208.20,10.82,-0.01,99,205.50,11.32,-0.03,98,204.50,11.24,-0.08,97,207.50,11.70,-0.20,97,207.60,12.35,-0.20,95,209.80,12.52,-0.28,94,210.20,11.79,-0.74,91,206.30,11.28,-0.61,89,216.10,14.92,-0.86,88,224.10,11.02,-1.71,82,0.06,0.06,0.07,0.11,0.14,0.15,0.18,0.26,0.25,0.28,0.26
10/3/2018 2:10 AM,206.80,10.27,-0.02,98,205.10,11.25,0.00,99,207.00,11.41,0.02,99,206.70,12.09,0.01,98,208.20,12.47,-0.16,97,214.40,14.07,-0.50,96,214.10,14.95,-0.62,93,215.50,13.12,-0.66,90,203.60,15.84,-0.68,86,197.40,16.17,-0.79,77,217.40,21.51,-1.80,59,0.07,0.06,0.06,0.08,0.10,0.13,0.15,0.26,0.18,0.23,0.21
10/3/2018 2:20 AM,207.80,10.02,-0.01,99,207.20,10.47,0.03,99,209.20,10.89,0.04,99,209.10,11.43,-0.05,99,209.40,12.55,-0.10,97,207.30,14.33,-0.32,96,218.70,13.48,-0.52,93,213.00,13.83,-0.68,90,211.50,14.44,-1.09,89,226.50,15.35,-1.45,88,207.80,20.88,-1.39,72,0.06,0.06,0.05,0.08,0.11,0.15,0.25,0.23,0.27,0.29,0.25
10/3/2018 2:30 AM,213.60,10.95,-0.09,99,213.50,10.88,-0.03,99,213.80,11.46,-0.03,99,213.80,11.98,-0.15,98,212.40,11.03,-0.26,96,211.40,11.15,-0.65,92,220.40,10.51,-0.85,91,195.20,9.10,-2.02,87,162.90,7.42,-3.03,81,170.10,12.00,-3.35,71,185.40,11.49,-4.00,56,0.06,0.06,0.05,0.10,0.23,0.33,0.29,0.73,0.50,0.41,0.45
10/3/2018 2:40 AM,218.10,11.66,-0.05,99,216.60,12.02,-0.11,99,217.30,12.44,-0.05,98,215.90,12.53,-0.10,97,210.90,12.95,-0.18,94,212.10,11.34,-0.57,89,199.20,11.94,-0.84,66,149.80,7.96,-2.05,55,196.20,8.56,-1.70,26,110.10,13.89,-2.63,23,43.80,18.32,-4.40,23,0.06,0.06,0.05,0.09,0.19,0.31,0.35,0.47,0.47,0.41,0.34
10/3/2018 2:50 AM,215.10,11.86,-0.12,99,213.10,11.96,-0.11,99,217.10,12.33,-0.14,98,215.10,12.12,-0.18,96,215.10,11.37,-0.37,93,211.20,9.04,-0.91,89,205.90,6.98,-1.62,66,206.10,15.17,-0.81,42,158.40,3.55,-1.08,49,81.60,6.35,-3.80,27,21.60,13.86,-4.73,17,0.05,0.08,0.06,0.12,0.23,0.41,0.65,0.31,0.96,1.49,0.93
10/3/2018 3:00 AM,215.60,10.75,-0.01,99,215.20,11.41,-0.03,99,215.60,11.74,-0.07,99,216.70,12.24,-0.01,98,217.20,11.82,-0.29,96,209.30,10.64,-0.58,91,205.20,12.00,-0.64,88,188.90,8.86,-1.26,82,172.20,5.85,-2.01,60,92.80,12.28,-3.59,43,111.10,6.49,-2.71,33,0.06,0.06,0.05,0.07,0.18,0.27,0.23,0.40,0.91,0.42,0.70
10/3/2018 3:10 AM,217.20,10.74,-0.06,99,217.40,11.24,-0.05,99,216.90,11.52,-0.01,98,217.40,11.87,-0.06,97,218.20,12.69,-0.13,95,219.90,13.45,-0.29,92,216.40,12.43,-0.55,88,230.30,12.87,-1.00,82,226.70,13.01,-1.25,60,229.80,16.10,-1.38,50,206.80,13.96,-2.25,39,0.06,0.06,0.07,0.08,0.09,0.16,0.21,0.26,0.31,0.22,0.56
10/3/2018 3:20 AM,214.50,10.13,0.01,98,215.00,10.96,0.01,99,216.80,11.51,-0.07,99,216.60,11.63,-0.12,96,219.70,11.30,-0.38,95,222.90,11.60,-0.65,90,219.30,12.35,-1.09,88,191.80,6.27,-1.72,75,238.20,14.06,-1.91,75,234.40,5.95,-2.96,29,267.30,7.11,-4.03,38,0.06,0.05,0.10,0.08,0.20,0.20,0.32,0.96,0.27,0.30,0.46
10/3/2018 3:30 AM,214.70,10.35,-0.08,99,216.60,10.85,-0.14,99,216.30,11.32,-0.15,98,217.20,11.93,-0.05,97,214.70,12.15,-0.17,97,222.00,12.39,-0.40,96,219.70,13.85,-0.57,93,225.40,14.72,-0.52,92,214.80,14.14,-0.73,90,213.70,13.99,-1.28,87,211.60,19.86,-1.06,84,0.06,0.05,0.08,0.10,0.11,0.19,0.17,0.16,0.22,0.24,0.16
10/3/2018 3:40 AM,218.50,9.66,-0.05,99,218.50,9.96,-0.01,99,218.90,10.52,0.01,99,220.40,10.57,-0.12,98,218.30,11.89,-0.36,98,211.50,12.69,-0.51,96,208.20,11.21,-0.84,94,203.60,10.89,-1.17,92,200.90,11.00,-1.31,90,191.10,9.68,-2.07,87,195.10,15.17,-3.19,80,0.06,0.06,0.05,0.12,0.20,0.21,0.35,0.37,0.45,0.49,0.46
10/3/2018 3:50 AM,222.40,8.97,-0.01,99,223.90,9.79,-0.01,99,224.20,10.23,-0.08,99,221.40,10.78,-0.12,98,224.60,10.73,-0.14,98,226.30,11.89,-0.28,97,224.20,11.50,-0.35,95,221.80,12.68,-0.37,91,220.50,11.78,-0.71,86,224.60,18.12,-0.98,63,224.90,15.37,-1.88,38,0.06,0.05,0.05,0.09,0.06,0.12,0.18,0.19,0.19,0.18,0.32
10/3/2018 4:00 AM,237.00,11.65,-5.85,98,242.40,10.92,-6.62,97,231.60,8.41,-7.21,97,231.80,8.33,-7.16,96,229.40,11.95,-7.39,95,243.00,9.06,-6.98,93,245.30,8.78,-7.19,92,234.10,9.12,-6.77,89,226.70,7.34,-6.54,85,252.40,9.25,-7.01,73,236.20,9.21,-7.03,57,0.36,0.34,0.39,0.39,0.29,0.44,0.45,0.62,0.50,0.46,0.93
10/3/2018 4:10 AM,253.90,5.06,0.02,99,243.10,5.78,-0.09,98,242.70,6.55,-0.11,98,244.50,6.98,-0.26,97,246.20,5.37,-0.47,97,238.70,5.59,-0.50,96,240.20,7.79,-0.28,95,237.60,6.45,-0.39,95,234.50,6.24,-0.42,95,236.10,8.00,-0.49,92,242.80,9.43,-0.70,90,0.24,0.25,0.23,0.27,0.45,0.41,0.30,0.42,0.46,0.44,0.37
10/3/2018 4:20 AM,351.10,11.75,-1.69,98,358.80,13.68,-1.96,98,6.70,13.05,-2.01,99,352.70,12.78,-1.87,98,354.50,13.61,-2.09,97,356.90,15.51,-1.51,95,342.10,11.49,-1.70,94,351.80,10.67,-1.79,91,338.40,11.83,-1.88,89,336.60,7.15,-2.51,87,346.70,9.22,-1.80,76,0.29,0.26,0.27,0.27,0.26,0.23,0.38,0.38,0.38,0.53,0.43
10/3/2018 4:30 AM,349.00,7.07,-7.34,99,352.50,7.24,-7.39,98,349.70,7.33,-7.48,97,355.40,7.00,-7.49,95,353.70,7.78,-7.67,90,2.00,7.56,-7.50,78,353.90,11.35,-7.47,54,297.80,9.94,-6.19,43,316.10,6.16,-5.86,28,354.90,26.02,-5.21,18,264.00,28.15,-1.22,10,0.25,0.20,0.18,0.25,0.25,0.55,0.22,0.55,0.77,0.45,0.30
10/3/2018 4:40 AM,350.10,6.79,-6.68,95,347.50,7.16,-6.44,92,6.40,7.18,-6.17,91,345.40,5.70,-6.15,67,34.90,6.82,-4.68,59,31.00,5.96,-3.64,45,38.00,9.63,-2.73,16,32.10,16.71,-3.32,18,358.10,27.47,-6.58,1,102.80,28.28,0.62,0,113.70,22.17,-2.28,5,0.44,0.52,0.55,0.62,0.55,1.08,0.44,0.41,0.34,0.20,0.30
10/3/2018 4:50 AM,350.70,3.65,-3.18,99,344.80,5.96,-2.52,98,357.60,6.30,-1.90,98,353.80,7.45,-1.55,98,341.90,7.23,-1.04,96,327.90,9.42,-2.27,94,345.50,7.17,-2.56,90,320.20,7.51,-2.82,79,300.20,6.11,-3.03,71,35.30,12.17,-2.82,51,75.60,17.05,-1.55,41,1.03,0.62,0.52,0.42,0.48,0.40,0.68,0.83,1.41,0.81,0.41
10/3/2018 5:00 AM,10.20,6.88,-5.42,98,10.70,7.35,-4.88,98,19.30,9.21,-4.90,98,16.70,7.22,-5.71,97,24.20,5.91,-5.82,93,17.40,4.48,-5.79,90,28.40,10.65,-6.35,71,47.00,5.90,-6.93,52,262.50,4.84,-7.92,39,323.80,11.48,-7.77,21,257.80,8.69,-5.94,25,0.60,0.58,0.49,0.52,0.72,0.62,0.36,0.58,0.66,0.51,1.29
10/3/2018 5:10 AM,351.30,2.70,-7.89,99,351.80,3.22,-7.98,98,346.40,4.10,-8.10,97,352.40,4.46,-8.14,96,339.30,5.20,-8.21,93,344.30,5.04,-8.17,90,15.50,2.77,-7.90,87,347.20,7.29,-8.30,70,355.80,12.18,-7.73,45,349.80,19.56,-6.29,36,64.70,9.61,-6.52,13,0.43,0.32,0.31,0.29,0.25,0.35,0.52,0.34,1.20,2.19,0.61
10/3/2018 5:20 AM,353.70,2.14,-8.52,100,351.10,2.41,-8.53,100,352.00,2.40,-8.56,99,351.50,3.49,-8.68,97,348.50,3.15,-8.78,95,344.50,3.44,-8.85,91,356.40,6.18,-8.56,81,8.70,1.95,-8.64,48,344.30,8.16,-8.61,23,88.90,15.47,-6.00,16,168.60,24.98,-3.27,9,0.35,0.31,0.27,0.26,0.28,0.16,0.39,1.69,0.27,0.43,0.24
10/3/2018 5:30 AM,47.20,2.13,-7.59,100,25.50,1.68,-7.66,99,26.90,3.27,-7.48,98,77.40,3.04,-6.97,97,339.30,3.22,-6.42,94,93.20,4.14,-6.62,87,359.50,4.46,-6.54,71,4.60,12.14,-3.67,66,124.20,16.48,0.21,27,289.20,9.19,-1.02,24,265.50,10.21,1.28,19,0.57,0.63,0.60,0.87,1.52,1.72,0.94,0.49,0.36,0.49,0.67
10/3/2018 5:40 AM,108.80,2.27,-5.91,98,100.20,4.17,-5.80,99,103.80,3.95,-5.22,98,119.10,4.19,-4.43,97,79.70,4.00,-3.57,95,74.20,1.73,-3.26,92,257.70,7.28,-2.46,88,204.30,2.34,-1.12,88,338.60,3.33,-0.22,91,298.30,2.10,0.06,91,293.40,3.98,0.14,90,1.29,0.61,0.78,0.87,0.79,1.42,0.76,1.55,1.89,0.86,0.35
10/3/2018 5:50 AM,89.10,1.94,-0.22,96,87.40,2.04,-0.11,96,102.80,1.87,-0.05,94,84.50,2.27,0.09,92,96.10,2.47,0.06,93,98.10,1.67,-0.03,93,42.00,1.25,0.03,90,12.80,1.94,0.03,92,324.00,1.43,0.15,90,301.40,2.65,0.36,68,258.20,4.62,0.63,84,0.41,0.68,0.88,0.76,0.54,2.75,0.66,0.57,1.10,0.59,0.62
10/3/2018 6:00 AM,145.10,0.63,-0.22,96,70.30,1.28,0.16,87,94.50,2.58,0.15,78,97.50,2.83,0.08,89,105.10,3.03,-0.01,83,56.40,1.13,-0.07,72,348.00,0.60,-0.16,91,336.90,2.71,0.13,89,285.80,3.15,0.31,53,315.90,4.26,0.75,30,171.40,5.65,1.07,24,0.78,4.18,0.43,0.32,0.23,0.83,1.37,0.47,0.38,1.71,0.64
10/3/2018 6:10 AM,146.10,1.08,-0.11,93,106.50,2.24,0.16,75,108.20,2.25,0.14,92,122.20,1.25,0.01,79,171.30,0.39,-0.07,67,339.80,0.24,-0.08,71,348.70,3.18,0.37,22,356.60,18.22,2.52,10,82.70,7.36,3.89,11,68.20,10.45,4.28,6,16.90,11.63,3.36,6,0.21,0.25,0.38,0.64,0.55,1.46,0.56,0.26,0.43,0.20,0.16
10/3/2018 6:20 AM,143.50,1.73,0.01,92,117.40,2.35,0.20,89,130.50,2.93,0.12,92,135.40,2.38,0.02,95,165.20,1.57,-0.01,94,209.70,1.52,-0.01,90,168.20,2.09,0.49,45,16.20,11.75,4.36,7,148.90,6.28,3.90,5,69.20,17.83,2.12,2,187.60,0.48,0.79,15,0.29,0.38,0.37,0.35,0.51,1.45,1.15,0.25,0.66,0.25,0.45
10/3/2018 6:30 AM,137.40,2.32,-0.01,95,125.50,3.49,0.00,92,127.90,3.49,0.01,92,129.00,3.50,-0.06,94,141.20,2.59,-0.02,94,154.50,2.16,-0.01,92,245.70,0.26,0.05,77,328.60,4.98,0.84,15,222.60,11.07,1.63,4,0.20,7.35,2.29,3,86.60,4.71,2.36,4,0.21,0.40,0.22,0.13,0.18,0.28,0.69,0.56,0.61,0.82,0.29
10/3/2018 6:40 AM,125.10,2.12,-0.03,97,116.00,2.75,0.02,92,134.40,2.96,0.07,91,135.20,3.20,0.00,87,137.70,3.72,0.06,53,104.00,1.99,0.13,66,138.90,1.46,0.01,90,148.90,1.59,0.24,90,241.30,2.35,0.30,50,178.00,15.21,-1.58,17,229.50,1.99,-0.29,30,0.19,0.30,0.19,0.27,0.20,0.55,1.19,0.91,0.55,0.74,1.09
10/3/2018 6:50 AM,128.10,2.11,0.05,94,139.40,2.54,0.20,77,138.40,3.36,0.33,25,108.20,2.18,0.15,35,81.70,4.10,0.43,12,151.30,4.11,0.80,28,196.00,3.39,1.99,13,139.50,5.44,1.45,19,237.30,1.66,0.27,28,227.20,2.77,0.19,48,222.50,6.72,0.93,12,0.75,0.51,0.41,0.48,0.53,0.42,0.72,0.49,0.99,0.52,0.33
10/3/2018 7:00 AM,127.60,2.97,0.10,93,119.50,5.84,0.38,57,142.90,5.58,0.59,7,126.70,5.74,0.70,4,146.60,15.49,0.48,3,196.20,7.73,1.62,8,180.20,6.14,2.20,8,334.90,7.26,2.74,9,178.70,6.18,0.74,7,175.40,7.17,1.06,3,148.10,11.50,1.51,3,0.27,0.21,0.15,0.32,0.23,0.60,0.57,1.77,0.40,0.23,1.57
10/3/2018 7:10 AM,138.40,2.70,0.06,91,138.70,3.22,0.12,54,122.60,7.91,0.65,10,119.80,11.41,0.39,7,175.80,6.97,1.68,0,131.60,5.47,1.59,5,133.20,4.32,0.89,13,139.80,8.24,0.85,14,147.20,6.88,0.65,9,165.40,23.24,0.61,3,149.10,20.37,0.57,15,0.18,0.29,0.17,0.10,0.07,0.67,0.37,0.20,0.30,0.14,0.10
10/3/2018 7:20 AM,120.80,2.38,-0.03,91,189.90,1.60,-0.12,44,137.20,7.77,-0.53,23,7.90,1.96,-2.05,8,167.90,3.07,-0.81,4,125.70,2.01,-0.10,16,113.80,5.97,-0.06,21,144.20,5.32,0.21,28,132.10,4.61,-0.07,35,209.30,3.26,-0.56,11,158.90,3.64,0.12,36,0.27,0.52,0.31,0.73,0.34,0.68,0.24,0.67,0.31,0.45,0.36
10/3/2018 7:30 AM,104.80,1.52,-0.37,89,346.10,1.69,-1.51,25,346.00,4.53,-2.52,19,355.50,3.29,-2.61,34,288.70,1.94,-2.89,13,189.00,3.34,-2.78,20,356.20,1.28,-2.22,49,27.10,4.11,-2.17,31,111.40,0.19,-1.63,40,278.50,5.55,-2.09,50,315.10,0.64,-1.92,48,0.57,1.89,0.91,0.60,0.60,13.16,2.37,0.68,6.01,0.30,0.67
10/3/2018 7:40 AM,120.50,2.01,-0.07,90,138.40,3.60,0.00,41,287.60,5.24,-1.60,10,257.00,6.08,-2.73,9,294.20,3.25,-3.30,3,1.30,7.16,-1.75,9,219.80,3.37,-0.73,25,220.40,4.29,-1.41,27,246.90,3.93,-0.75,29,314.00,2.20,-1.52,18,286.60,9.59,-1.87,8,0.19,0.31,0.50,0.24,0.54,0.26,0.29,0.28,0.32,0.45,0.54
10/3/2018 7:50 AM,91.60,2.85,-0.38,88,79.30,2.15,-1.21,41,137.80,0.36,-2.09,17,276.30,1.82,-2.75,18,277.10,0.83,-2.73,28,230.10,3.21,-2.71,22,213.00,2.74,-2.73,11,283.10,3.36,-2.48,21,288.90,3.24,-2.16,23,325.40,2.75,-2.55,23,260.00,2.46,-2.46,24,0.46,0.79,0.74,1.19,1.96,0.43,0.45,0.51,0.53,0.75,0.28
10/3/2018 8:00 AM,132.30,1.71,-0.43,87,331.50,3.04,-2.28,17,25.20,2.14,-3.06,21,240.30,2.02,-3.20,30,281.30,2.29,-2.85,28,300.80,2.74,-2.70,33,308.80,2.69,-2.87,45,258.00,2.19,-2.96,28,179.10,0.31,-2.46,37,272.00,2.71,-2.77,35,219.70,3.05,-3.04,33,0.50,0.54,0.48,0.72,0.35,1.51,0.71,1.54,2.00,0.45,0.57
10/3/2018 8:10 AM,132.60,3.08,-0.29,92,269.20,3.09,-1.64,57,261.60,2.84,-2.65,17,292.40,4.60,-2.93,6,178.30,7.51,-3.25,10,135.50,4.88,-2.25,16,282.10,0.97,-1.60,56,152.00,4.00,-1.52,32,220.60,1.24,-2.12,26,185.30,3.32,-2.61,8,236.30,3.06,-3.05,21,0.34,0.50,0.59,0.30,0.41,0.93,1.12,0.47,1.37,0.57,0.45
10/3/2018 8:20 AM,146.90,3.28,0.06,95,151.20,3.57,0.18,70,134.50,4.58,0.14,15,145.00,13.75,1.60,1,136.50,17.66,1.77,2,105.90,5.86,-0.06,4,170.00,4.61,-0.02,30,176.00,5.86,0.15,42,165.10,3.63,-0.24,19,192.30,12.04,0.30,12,109.90,20.59,-3.25,3,0.15,0.32,0.53,0.23,0.16,0.31,0.33,0.24,0.52,0.19,0.10
10/3/2018 8:30 AM,138.70,3.46,0.10,93,101.90,3.28,0.10,59,102.20,7.15,0.75,29,160.90,6.83,0.07,26,172.80,6.00,0.53,50,124.90,1.93,0.64,49,162.40,3.98,0.12,72,178.50,5.81,0.12,77,200.30,5.03,0.22,77,220.80,5.67,-0.12,47,201.00,8.35,0.16,12,0.18,0.45,0.31,0.24,0.33,0.65,0.36,0.22,0.20,0.24,0.42
10/3/2018 8:40 AM,172.50,3.35,0.28,96,173.40,2.00,0.78,80,115.80,0.69,1.30,44,156.30,1.20,1.68,40,131.90,5.10,2.25,35,356.00,0.94,1.99,47,157.40,1.02,1.32,56,201.10,3.11,0.97,48,145.00,2.65,1.81,43,163.90,0.37,2.24,39,104.30,6.11,2.46,31,0.23,0.43,1.99,2.19,0.68,20.48,0.58,0.35,0.51,1.53,0.34
10/3/2018 8:50 AM,151.50,4.14,0.08,96,158.20,4.22,0.12,91,152.70,6.31,0.44,53,156.90,9.30,0.48,32,166.00,11.08,0.61,31,152.70,8.80,0.67,34,174.90,8.03,-0.03,57,166.30,16.01,0.26,30,126.90,13.84,0.25,20,132.50,21.48,-1.17,4,140.10,18.74,-0.56,4,0.14,0.27,0.34,0.24,0.29,0.31,0.25,0.25,0.21,0.52,0.51
10/3/2018 9:00 AM,166.30,3.78,0.11,98,151.70,4.43,0.16,93,165.80,7.36,0.05,84,175.10,21.71,-0.52,37,153.20,13.30,0.02,32,168.70,10.14,-0.14,46,165.60,6.84,-0.11,87,170.50,16.07,-0.46,45,141.60,21.05,-1.82,38,161.70,25.94,-2.90,33,165.70,23.96,-2.81,30,0.11,0.29,0.24,0.17,0.45,0.25,0.29,0.18,0.33,0.28,0.29
10/3/2018 9:10 AM,157.60,3.84,0.02,97,152.10,4.31,0.23,93,157.70,8.85,0.31,84,155.70,9.71,0.50,43,168.10,10.81,1.03,40,164.50,6.95,0.36,49,181.20,6.02,0.49,73,165.50,5.60,0.09,52,168.10,11.58,0.96,37,128.00,20.27,1.47,21,96.80,15.52,0.67,19,0.18,0.31,0.38,0.42,0.39,0.75,0.42,0.45,0.59,0.46,0.41
10/3/2018 9:20 AM,175.30,3.33,0.24,96,176.90,3.49,0.76,91,189.30,2.91,1.45,84,153.00,2.24,1.70,59,144.10,3.00,2.83,71,192.40,0.73,2.22,67,276.60,1.81,1.22,72,201.70,3.25,1.26,89,255.80,2.16,1.99,79,329.30,5.14,1.77,54,334.30,1.56,1.47,45,0.33,0.42,0.45,0.96,0.85,1.61,1.12,0.51,1.61,1.35,0.74
10/3/2018 9:30 AM,174.90,4.06,0.24,97,181.80,1.72,0.80,92,172.10,2.06,1.25,90,142.50,2.00,1.72,83,75.60,0.88,1.72,88,79.70,0.25,1.50,86,182.40,5.40,0.94,92,232.30,1.78,1.44,90,2.20,2.60,1.88,73,56.60,0.12,2.28,85,337.80,2.14,1.97,87,0.18,0.53,0.66,0.60,1.04,0.86,0.31,0.54,1.74,1.83,0.72
10/3/2018 9:40 AM,174.20,4.68,0.26,93,187.10,4.39,0.30,87,223.70,6.53,0.51,70,252.30,2.83,1.05,50,206.60,5.79,-0.06,63,162.60,2.96,0.25,89,201.70,4.04,0.71,87,140.80,5.67,0.62,64,152.10,2.91,-0.14,44,311.50,7.14,-0.13,60,178.60,2.96,-0.51,39,0.21,0.41,0.34,1.75,0.44,0.67,0.36,0.61,0.96,0.63,4.20
10/3/2018 9:50 AM,182.30,4.49,0.14,97,211.40,3.33,0.70,90,320.30,3.55,0.92,63,324.20,4.32,0.65,62,211.70,4.43,0.39,89,256.40,3.16,0.74,90,255.60,3.08,0.54,89,290.70,8.65,0.37,56,305.90,11.17,0.36,51,271.00,11.01,-0.53,60,291.40,10.87,-0.95,39,0.14,0.40,5.63,3.04,0.44,0.65,0.50,0.40,0.34,0.53,0.57
10/3/2018 10:00 AM,188.30,4.06,0.15,96,197.00,2.68,0.13,89,196.90,4.68,0.71,68,186.00,4.37,0.52,79,197.20,3.76,0.31,87,212.30,4.51,0.54,88,217.40,2.93,0.43,64,110.50,2.87,0.60,37,142.60,2.60,0.43,57,308.60,8.31,-0.69,50,172.90,3.46,-0.42,47,0.19,0.74,0.57,0.71,0.36,0.36,1.00,1.01,0.79,1.45,2.02
10/3/2018 10:10 AM,175.70,2.95,0.02,95,161.60,1.70,0.00,90,178.00,2.03,-0.05,91,177.20,3.04,0.01,92,188.60,3.33,0.17,94,245.20,2.85,-0.24,85,308.50,7.70,-1.10,83,295.20,5.63,-1.20,76,274.90,8.20,-0.79,64,309.50,13.72,-1.09,62,5.80,2.92,-0.29,45,0.25,1.07,0.70,0.36,0.28,0.74,0.58,1.48,0.51,0.34,1.02
10/3/2018 10:20 AM,172.90,2.65,0.01,96,174.60,3.13,0.10,98,175.30,3.21,0.20,97,181.60,3.17,0.10,95,193.50,4.27,0.31,93,226.70,4.12,0.18,91,301.80,7.61,-0.23,83,278.40,4.17,0.21,78,236.60,8.74,-0.40,73,312.40,7.44,-0.25,73,255.70,6.61,-0.15,72,0.21,0.17,0.17,0.28,0.41,0.52,0.60,1.29,0.94,1.19,0.70
10/3/2018 10:30 AM,200.40,2.47,0.19,97,208.00,2.33,0.40,96,217.60,2.97,0.37,96,212.40,3.43,0.66,93,234.60,2.74,0.89,90,207.50,3.68,1.21,89,216.50,4.96,1.36,61,168.20,1.58,1.54,70,180.50,7.64,1.25,74,228.60,3.78,1.39,57,128.00,1.61,1.49,67,0.26,0.48,0.35,0.42,0.69,0.75,0.55,1.61,0.42,0.62,0.83
10/3/2018 10:40 AM,256.60,2.47,0.32,95,234.70,1.75,0.62,93,227.90,2.51,0.58,93,200.40,2.39,0.67,92,223.30,3.53,1.19,91,227.10,2.90,1.45,77,172.70,5.60,1.58,53,235.60,2.12,1.85,67,156.30,5.16,1.13,65,171.30,9.20,1.25,66,241.70,6.16,1.02,71,0.38,0.65,0.88,0.58,0.65,0.54,0.52,0.50,0.71,0.54,0.42
10/3/2018 10:50 AM,194.80,1.67,-0.02,96,199.10,1.79,0.03,96,194.20,2.13,0.16,95,193.90,2.39,0.17,95,217.80,3.27,-0.04,92,198.80,5.14,-0.22,90,226.50,2.17,0.13,89,204.10,5.05,-0.05,89,199.10,7.01,-0.62,71,218.50,2.39,-0.64,78,140.20,7.01,-1.14,53,0.34,0.37,0.37,0.43,0.47,0.36,0.74,0.49,0.35,1.40,0.82
10/3/2018 11:00 AM,197.40,1.66,-0.12,96,226.00,2.30,-0.05,96,222.70,2.30,-0.04,96,215.80,2.52,0.04,96,220.00,4.12,0.01,93,200.80,4.63,-0.02,92,352.30,1.36,0.28,92,205.10,5.18,0.04,90,220.00,6.30,-0.34,88,50.40,0.32,0.51,55,136.00,5.31,-0.35,64,0.30,0.24,0.38,0.45,0.52,0.33,3.33,0.53,0.55,2.85,0.90
10/3/2018 11:10 AM,209.80,2.08,0.00,96,256.50,1.49,-0.07,96,204.50,3.34,-0.10,94,212.70,3.21,0.03,95,185.60,4.28,0.21,95,192.40,7.53,-0.31,93,203.00,4.75,-0.16,92,227.70,4.60,-0.54,92,178.10,7.44,-1.00,89,143.80,6.32,-1.08,88,140.90,5.70,-3.23,80,0.26,0.43,0.30,0.33,0.56,0.39,0.64,0.75,0.80,2.57,1.91
10/3/2018 11:20 AM,201.20,1.99,0.01,95,267.40,1.35,0.02,95,199.80,2.64,0.04,96,217.10,2.09,0.06,95,277.70,2.69,0.05,94,315.30,2.92,0.32,94,210.80,4.10,0.12,93,296.90,0.43,0.65,92,92.40,2.46,1.24,92,167.90,2.86,1.01,91,154.10,4.17,1.10,91,0.39,0.59,0.37,0.46,0.61,0.70,0.47,1.36,1.22,2.93,1.30
10/3/2018 11:30 AM,198.60,1.53,0.01,94,240.50,0.78,0.27,93,195.60,1.84,0.33,93,179.40,1.91,0.55,91,220.60,3.37,0.33,92,256.90,1.82,0.51,90,179.10,0.80,0.92,86,106.90,3.94,1.23,84,167.40,9.33,1.72,76,140.70,6.59,1.65,87,161.40,12.33,1.38,75,0.49,1.78,1.08,1.26,0.71,1.02,2.54,1.54,0.51,0.61,0.45
10/3/2018 11:40 AM,307.90,2.29,0.02,99,300.30,2.59,0.03,98,291.20,3.07,0.07,98,290.90,2.48,0.03,98,258.20,3.11,-0.07,95,252.10,4.01,0.30,94,294.60,1.69,0.13,92,285.90,2.83,0.07,93,304.50,4.32,0.01,92,338.90,2.25,0.04,91,224.60,3.29,0.12,90,0.16,0.17,0.13,0.29,0.60,0.85,1.89,1.15,0.85,1.75,0.99
10/3/2018 11:50 AM,338.20,2.49,-0.05,97,320.00,2.22,0.00,96,312.30,2.33,0.04,97,277.00,1.82,-0.08,98,288.10,3.40,-0.03,97,269.30,3.28,-0.21,95,235.10,5.10,-0.67,94,241.60,4.41,-0.46,94,233.80,5.19,-0.53,93,272.60,5.07,-0.37,90,246.70,7.18,-1.01,89,0.20,0.16,0.16,0.98,0.37,0.59,0.71,0.82,0.63,0.67,0.48
10/3/2018 12:00 PM,359.50,2.56,-0.08,96,346.40,2.52,-0.06,95,325.90,2.41,-0.01,96,313.50,2.08,0.02,97,300.10,2.80,0.10,98,300.60,2.79,0.08,98,295.80,3.14,-0.06,98,291.80,2.67,0.09,97,276.60,3.34,0.06,97,257.00,3.09,0.24,91,245.50,5.78,1.48,89,0.15,0.16,0.13,0.23,0.20,0.12,0.47,0.70,0.64,2.09,0.71
10/3/2018 12:10 PM,357.40,2.13,-0.08,96,358.70,2.52,-0.06,95,334.60,2.22,-0.03,96,320.80,2.29,-0.04,95,299.70,2.23,-0.07,97,304.90,3.26,0.01,97,303.30,2.94,0.09,95,298.70,4.46,0.08,94,291.60,4.19,0.28,93,290.90,4.86,0.62,91,272.50,16.77,0.50,42,0.29,0.29,0.19,0.17,0.28,0.38,0.75,0.46,0.73,0.77,0.47
10/3/2018 12:20 PM,341.70,2.16,0.07,96,333.30,2.34,0.05,97,320.30,2.58,0.06,96,331.30,3.05,0.02,97,297.90,3.29,0.07,98,310.10,5.08,0.15,98,304.40,3.70,0.07,92,130.30,5.67,-0.05,72,137.50,20.25,1.62,48,168.90,15.39,1.60,49,126.30,8.48,4.54,58,0.21,0.23,0.24,0.19,0.28,0.30,2.39,0.86,0.49,1.04,0.59
10/3/2018 12:30 PM,331.80,2.45,-0.02,98,340.90,2.65,-0.05,97,329.60,2.55,0.03,97,327.00,3.12,0.02,96,313.00,3.57,-0.07,99,294.40,3.47,0.16,98,302.70,4.80,0.03,96,276.70,2.76,0.68,92,11.00,5.19,1.97,54,225.00,6.55,2.31,60,6.40,4.74,2.05,47,0.31,0.17,0.33,0.29,0.11,0.43,0.46,1.66,0.87,0.90,4.24